TimeEDT,TemperatureF,Dew PointF,Humidity,Sea Level PressureIn,VisibilityMPH,Wind Direction,Wind SpeedMPH,Gust SpeedMPH,PrecipitationIn,Events,Conditions,WindDirDegrees,DateUTC
12:10 AM,30.2,30.2,100,30.32,10.0,Calm,Calm,-,N/A,,Clear,0,2013-03-10 05:10:00
12:30 AM,30.2,30.2,100,30.33,10.0,Calm,Calm,-,N/A,Snow,Light Snow,0,2013-03-10 05:30:00
12:50 AM,30.2,30.2,100,30.32,10.0,Calm,Calm,-,N/A,,Clear,0,2013-03-10 05:50:00
1:10 AM,30.2,30.2,100,30.33,10.0,Calm,Calm,-,N/A,,Clear,0,2013-03-10 06:10:00
1:30 AM,28.4,28.4,100,30.32,10.0,Calm,Calm,-,N/A,,Clear,0,2013-03-10 06:30:00
1:50 AM,30.2,30.2,100,30.32,10.0,Calm,Calm,-,N/A,Snow,Light Snow,0,2013-03-10 06:50:00
3:10 AM,30.2,30.2,100,30.32,10.0,Calm,Calm,-,N/A,,Clear,0,2013-03-10 07:10:00
3:35 AM,28.4,28.4,100,30.31,10.0,Calm,Calm,-,N/A,,Clear,0,2013-03-10 07:35:00
3:55 AM,28.4,28.4,100,30.31,10.0,Calm,Calm,-,N/A,,Clear,0,2013-03-10 07:55:00
4:15 AM,26.6,26.6,100,30.30,10.0,Calm,Calm,-,N/A,,Clear,0,2013-03-10 08:15:00
4:35 AM,28.4,28.4,100,30.30,10.0,Calm,Calm,-,N/A,,Clear,0,2013-03-10 08:35:00
4:55 AM,28.4,28.4,100,30.30,10.0,Calm,Calm,-,N/A,,Clear,0,2013-03-10 08:55:00
5:15 AM,28.4,28.4,100,30.30,10.0,Calm,Calm,-,N/A,,Clear,0,2013-03-10 09:15:00
5:35 AM,28.4,28.4,100,30.31,10.0,Calm,Calm,-,N/A,,Clear,0,2013-03-10 09:35:00
5:55 AM,26.6,26.6,100,30.32,10.0,Calm,Calm,-,N/A,,Clear,0,2013-03-10 09:55:00
6:15 AM,26.6,26.6,100,30.32,10.0,Calm,Calm,-,N/A,,Clear,0,2013-03-10 10:15:00
6:35 AM,26.6,26.6,100,30.32,10.0,Calm,Calm,-,N/A,,Clear,0,2013-03-10 10:35:00
6:45 AM,26.6,26.6,100,30.32,10.0,Calm,Calm,-,N/A,,Clear,0,2013-03-10 10:45:00
8:50 AM,30.2,30.2,100,30.34,10.0,Calm,Calm,-,N/A,,Clear,0,2013-03-10 12:50:00
9:46 AM,37.4,32.0,81,30.35,10.0,Calm,Calm,-,N/A,,Clear,0,2013-03-10 13:46:00
10:48 AM,48.2,32.0,54,30.34,10.0,Calm,Calm,-,N/A,,Clear,0,2013-03-10 14:48:00
11:47 AM,55.4,33.8,44,30.33,10.0,SSW,5.8,-,N/A,,Clear,210,2013-03-10 15:47:00
12:45 PM,59.0,30.2,34,30.32,10.0,SSW,10.4,-,N/A,,Clear,210,2013-03-10 16:45:00
1:50 PM,60.8,28.4,29,30.28,10.0,South,8.1,18.4,N/A,,Clear,190,2013-03-10 17:50:00
2:50 PM,60.8,28.4,29,30.26,10.0,South,10.4,-,N/A,,Clear,190,2013-03-10 18:50:00
4:48 PM,64.4,28.4,26,30.23,10.0,South,11.5,-,N/A,,Clear,190,2013-03-10 20:48:00
6:57 PM,55.4,24.8,31,30.23,10.0,Variable,4.6,-,N/A,,Clear,0,2013-03-10 22:57:00
7:50 PM,53.6,24.8,33,30.24,10.0,SE,6.9,-,N/A,,Clear,140,2013-03-10 23:50:00
8:55 PM,50.0,24.8,37,30.24,10.0,SE,4.6,-,N/A,,Clear,140,2013-03-11 00:55:00
9:15 PM,50.0,24.8,37,30.25,10.0,SSE,4.6,-,N/A,,Clear,150,2013-03-11 01:15:00
9:35 PM,48.2,23.0,37,30.25,10.0,SSE,4.6,-,N/A,,Clear,160,2013-03-11 01:35:00
9:55 PM,48.2,23.0,37,30.25,10.0,Calm,Calm,-,N/A,,Clear,0,2013-03-11 01:55:00
10:15 PM,48.2,23.0,37,30.25,10.0,Calm,Calm,-,N/A,,Clear,0,2013-03-11 02:15:00
10:35 PM,44.6,24.8,46,30.26,10.0,South,3.5,-,N/A,,Clear,190,2013-03-11 02:35:00
10:55 PM,46.4,23.0,40,30.26,10.0,SSE,3.5,-,N/A,,Clear,160,2013-03-11 02:55:00
11:15 PM,42.8,23.0,46,30.25,10.0,Calm,Calm,-,N/A,,Clear,0,2013-03-11 03:15:00
11:35 PM,44.6,21.2,39,30.25,10.0,Calm,Calm,-,N/A,,Clear,0,2013-03-11 03:35:00
11:55 PM,44.6,21.2,39,30.25,10.0,SSE,3.5,-,N/A,,Clear,160,2013-03-11 03:55:00
12:15 AM,44.6,21.2,39,30.25,10.0,SSE,4.6,-,N/A,,Clear,150,2013-03-11 04:15:00
12:35 AM,44.6,21.2,39,30.25,10.0,SSE,3.5,-,N/A,,Clear,150,2013-03-11 04:35:00
12:55 AM,42.8,23.0,46,30.24,10.0,SSE,4.6,-,N/A,,Clear,160,2013-03-11 04:55:00